Location: Hopville
(44.8032°N, 123.1329°W)
Time: 17:27:18
(UTC+00:00)

CZ-4 R/B - Pass Details

Date: 24 January 2021
Orbit: 530 x 599 km, 97.7° (Epoch: 01 March)

Event Time Altitude Azimuth Distance (km) Brightness Sun altitude
Rises 15:03:41 0° 23° (NNE) 2,693 4.9 -6.7°
Reaches altitude 10° 15:06:03 10° 36° (NE) 1,792 4.1 -6.3°
Maximum altitude 15:09:23 28° 96° (E) 1,027 3.7 -5.7°
Drops below altitude 10° 15:12:42 10° 156° (SSE) 1,776 4.7 -5.2°
Sets 15:15:02 0° 168° (SSE) 2,663 5.3 -4.8°
